[[{"header":{"parameterUnit":"m.s-1","parameterCategory":1,"la1":30.2991,"la2":30.254,"lo1":-89.0895,"lo2":-89.0444,"dy":0.0017,"dx":0.0017,"nx":28,"ny":28,"refTime":"2024-05-25T03:00:00:Z","depth":0,"parameterNumber":2,"parameterNumberName":"U-component_of_WINDS"},"data":[0,0,0,0,0,0,0,0,0,0,0,0,0,0,0,0,0,0,0,0,0,0,0,0,0,0,0,0,0,0,0,0,0,0,0,0,0,0,0,0,0,0,0,0,0,0,0,0,0,0,0,0,0,0,0,0,0,0,0.8415,0.8415,0,0.8385,0.8385,0.8385,0.8317,0.8316,0.8314,0.8313,0.8287,0.8287,0.8288,0,0,0,0,0,0,0,0,0,0,0,0,0,0.8416,0.8417,0.8415,0.8415,0.8414,0.8386,0.8385,0.8385,0.8317,0.8315,0.8314,0.8312,0.8286,0.8287,0.8288,0,0,0,0,0,0,0,0,0,0,0,0,0,0.8404,0.8417,0.8415,0.8377,0.8373,0.8386,0.8385,0.8385,0.8318,0.8315,0.8313,0.8311,0.8286,0.8287,0.8288,0.8336,0,0,0.8291,0.8291,0,0,0,0,0,0,0,0,0.8405,0.8404,0.8383,0.838,0.8375,0.8353,0.8376,0.8369,0.8318,0.8339,0.8313,0.831,0.8311,0.8309,0.8309,0.8335,0.8334,0.8291,0.8291,0.8292,0.8292,0,0,0,0,0,0,0,0.8406,0.8405,0.8403,0.8383,0.8378,0.8363,0.8359,0.8374,0.8337,0.8337,0.8332,0.8329,0.8308,0.8308,0.8307,0.8333,0.8291,0.8292,0.8292,0.8293,0.8398,0.84,0,0,0,0,0,0,0.8412,0.8406,0.8404,0.8402,0.8385,0.8364,0.836,0.8362,0.8337,0.8331,0.8331,0.8326,0.8307,0.8306,0.8306,0.836,0.8292,0.8293,0.8293,0.8395,0.8398,0.8401,0,0,0,0,0,0,0.8412,0.8412,0.8405,0.8403,0.8401,0.8366,0.837,0.8363,0.8362,0.8332,0.8326,0.8337,0.8306,0.8305,0.8329,0.8359,0.8293,0.8294,0.8393,0.8396,0.8399,0.847,0,0,0,0,0,0,0.8413,0.8413,0.843,0.8404,0.8401,0.8428,0.8372,0.8364,0.8364,0.8357,0.8336,0.8331,0.8304,0.8328,0.833,0.8359,0.8295,0.839,0.8394,0.8398,0.8465,0.8475,0.8484,0,0,0,0,0,0.8413,0.8452,0.8431,0.8431,0.8422,0.8429,0.8428,0.8395,0.8366,0.8384,0.8364,0.8332,0.8355,0.8331,0.8332,0.8362,0.8388,0.8393,0.8398,0.846,0.8473,0.8484,0,0,0,0,0,0,0.8484,0.8448,0.8424,0.8456,0.8446,0.8418,0.8439,0.841,0.8409,0.8403,0.8363,0.8359,0.8389,0.8378,0.8351,0.8407,0.8366,0.8372,0.8413,0.8425,0.8435,0.8436,0.8295,0,0,0,0,0,0.8503,0.8511,0.8479,0.851,0.8506,0.8474,0.8476,0.8451,0.844,0.8436,0.8418,0.841,0.8415,0.842,0.8423,0.8463,0.8458,0.8484,0.8494,0.8502,0.8507,0.8528,0.8539,0.8417,0.8417,0.8417,0,0,0.8542,0.8524,0.8532,0.8524,0.8513,0.8524,0.8471,0.8484,0.8491,0.8438,0.8459,0.8446,0.8434,0.8466,0.8479,0.8458,0.854,0.8509,0.8515,0.8516,0.8534,0.8546,0.8556,0.842,0.842,0.8419,0,0,0.862,0.8607,0.8631,0.8621,0.8605,0.8583,0.8589,0.8565,0.8554,0.8574,0.8535,0.8544,0.8554,0.8547,0.8545,0.862,0.859,0.8622,0.8673,0.8693,0.8703,0.8711,0.8738,0.8748,0.8628,0.8628,0.8628,0,0.8672,0.8684,0.8647,0.8662,0.866,0.8612,0.8636,0.8629,0.8616,0.8617,0.8593,0.8604,0.8593,0.8622,0.864,0.8641,0.8647,0.8624,0.8704,0.8712,0.872,0.8745,0.8755,0.8632,0.8632,0.8631,0.8631,0,0.8748,0.8758,0.8779,0.8766,0.8767,0.8787,0.8754,0.876,0.8735,0.8716,0.8738,0.8722,0.8721,0.8727,0.8704,0.8753,0.874,0.8711,0.8669,0.8736,0.8759,0.8768,0.8638,0.8636,0.8635,0.8634,0,0,0.8869,0.8835,0.8844,0.8837,0.8816,0.8823,0.8842,0.884,0.8845,0.8838,0.8853,0.8863,0.8835,0.8833,0.8809,0.8827,0.8887,0.8795,0.8794,0.8812,0.894,0.8962,0.8974,0.8867,0.8869,0.887,0.8941,0,0.8941,0.8969,0.8936,0.8971,0.898,0.8934,0.895,0.894,0.8923,0.8929,0.891,0.8917,0.8881,0.8879,0.8895,0.8876,0.8912,0.8871,0.8881,0.8882,0.8885,0.8986,0.9009,0.9077,0.895,0.8952,0.8953,0,0.9029,0.9024,0.906,0.9037,0.9039,0.9054,0.9049,0.9055,0.9043,0.903,0.9027,0.8997,0.9015,0.8974,0.8998,0.8971,0.8973,0.8965,0.8967,0.8966,0.8921,0.8988,0.9098,0.9108,0.8966,0.8965,0.8964,0,0.9112,0.9116,0.9137,0.9133,0.9107,0.9119,0.9108,0.9094,0.9095,0.9092,0.9092,0.9092,0.9091,0.9092,0.9064,0.9037,0.9091,0.9048,0.9081,0.9082,0.9094,0.9093,0.9206,0.9097,0.9096,0.9096,0.9096,0,0.9196,0.9219,0.9174,0.9188,0.9213,0.9176,0.9203,0.9188,0.9176,0.9186,0.9148,0.9159,0.912,0.9128,0.9106,0.9129,0.9129,0.9119,0.9113,0.9122,0.9124,0.9123,0.9117,0.9099,0.9098,0.9098,0.9097,0,0.9293,0.9264,0.9284,0.9258,0.9252,0.9272,0.9249,0.9261,0.9242,0.9255,0.9257,0.9226,0.9233,0.9205,0.9207,0.9192,0.9226,0.9213,0.923,0.9226,0.926,0.9257,0.9375,0.9389,0.9272,0.9273,0.9274,0,0.9348,0.9365,0.934,0.9343,0.9335,0.9341,0.9342,0.9307,0.9309,0.9297,0.931,0.9313,0.9314,0.9326,0.9305,0.9307,0.9293,0.9334,0.9293,0.9301,0.9293,0.9292,0.9293,0.9343,0.9344,0.9345,0.9346,0,0.9448,0.9433,0.9434,0.9431,0.9432,0.9428,0.9422,0.9427,0.9389,0.9394,0.94,0.94,0.9402,0.9405,0.9403,0.9393,0.9364,0.936,0.9367,0.9376,0.9386,0.9381,0.9253,0.9357,0.9356,0.9355,0.9354,0.9354,0.9525,0.9538,0.9522,0.9525,0.9516,0.9511,0.9521,0.9502,0.9506,0.9504,0.9483,0.9493,0.9481,0.9474,0.9468,0.9475,0.9456,0.9467,0.947,0.9473,0.9479,0.9385,0.9475,0.9474,0.9474,0.9474,0.9474,0,0.9623,0.961,0.9613,0.9605,0.9608,0.9579,0.957,0.9575,0.9583,0.9574,0.9575,0.9582,0.9586,0.9565,0.9566,0.9576,0.9563,0.9578,0.9576,0.9575,0.9496,0.9489,0.9588,0.9588,0.9588,0.9588,0.9588,0.9588,0.9674,0.9693,0.9677,0.9692,0.968,0.9688,0.9686,0.9681,0.9674,0.9682,0.9685,0.9671,0.9657,0.9657,0.966,0.9653,0.9656,0.9675,0.9665,0.9591,0.958,0.957,0.9563,0.9676,0.9676,0.9742,0.9743,0.9743]},{"header":{"parameterUnit":"m.s-1","parameterCategory":1,"la1":30.2991,"la2":30.254,"lo1":-89.0895,"lo2":-89.0444,"dy":0.0017,"dx":0.0017,"nx":28,"ny":28,"refTime":"2024-05-25T03:00:00:Z","depth":0,"parameterNumber":3,"parameterNumberName":"V-component_of_WINDS"},"data":[0,0,0,0,0,0,0,0,0,0,0,0,0,0,0,0,0,0,0,0,0,0,0,0,0,0,0,0,0,0,0,0,0,0,0,0,0,0,0,0,0,0,0,0,0,0,0,0,0,0,0,0,0,0,0,0,0,0,5.2066,5.2065,0,5.2025,5.2025,5.2024,5.1956,5.1954,5.1953,5.1952,5.1911,5.1911,5.1911,0,0,0,0,0,0,0,0,0,0,0,0,0,5.2085,5.2085,5.2066,5.2065,5.2065,5.2025,5.2025,5.2024,5.1956,5.1954,5.1953,5.1951,5.1911,5.1911,5.1911,0,0,0,0,0,0,0,0,0,0,0,0,0,5.2064,5.2085,5.2066,5.2026,5.2022,5.2025,5.2025,5.2024,5.1956,5.1954,5.1952,5.1951,5.1911,5.1911,5.1911,5.1951,0,0,5.1912,5.1912,0,0,0,0,0,0,0,0,5.2065,5.2063,5.2032,5.2029,5.2024,5.1993,5.2016,5.1999,5.1957,5.1981,5.1952,5.195,5.194,5.1938,5.1934,5.1949,5.1947,5.1912,5.1912,5.1912,5.1912,0,0,0,0,0,0,0,5.2067,5.2064,5.205,5.2032,5.2027,5.201,5.2005,5.2013,5.1972,5.1979,5.1974,5.197,5.1938,5.1935,5.1933,5.1946,5.1912,5.1912,5.1912,5.1912,5.199,5.1992,0,0,0,0,0,0,5.2074,5.2066,5.2051,5.2048,5.204,5.2012,5.2006,5.2005,5.1972,5.1965,5.1972,5.1967,5.1935,5.1933,5.1931,5.1974,5.1912,5.1912,5.1912,5.1988,5.1991,5.1993,0,0,0,0,0,0,5.2074,5.2073,5.2053,5.2056,5.2052,5.2013,5.2013,5.2006,5.2002,5.1966,5.1959,5.1976,5.1934,5.1931,5.1946,5.1972,5.1912,5.1912,5.1986,5.1989,5.1992,5.2061,0,0,0,0,0,0,5.2075,5.2074,5.2088,5.2057,5.2052,5.2068,5.2015,5.2006,5.2003,5.1996,5.1968,5.1962,5.1932,5.1946,5.1946,5.1971,5.1913,5.1983,5.1987,5.1991,5.2056,5.2066,5.2075,0,0,0,0,0,5.2076,5.2109,5.2089,5.2088,5.2069,5.207,5.2067,5.2032,5.2005,5.2019,5.1996,5.1963,5.1969,5.1948,5.1948,5.1973,5.1982,5.1986,5.1991,5.2052,5.2064,5.2074,0,0,0,0,0,0,5.2145,5.2105,5.2082,5.2106,5.2092,5.2058,5.2075,5.2046,5.2039,5.2033,5.199,5.1985,5.2005,5.1991,5.1968,5.2009,5.197,5.1975,5.2017,5.2028,5.2037,5.204,5.1913,0,0,0,0,0,5.2163,5.2167,5.2131,5.2156,5.215,5.2114,5.2113,5.2087,5.2071,5.2065,5.2042,5.2028,5.2027,5.2027,5.2024,5.2054,5.2047,5.2071,5.208,5.2088,5.2092,5.2107,5.2117,5.2007,5.2007,5.2007,0,0,5.22,5.2179,5.2184,5.2169,5.2155,5.216,5.2109,5.2117,5.212,5.2066,5.2078,5.2062,5.2043,5.2066,5.2075,5.2054,5.2121,5.2094,5.21,5.21,5.2112,5.2123,5.2132,5.201,5.201,5.2009,0,0,5.227,5.2255,5.2273,5.226,5.2239,5.2215,5.222,5.2191,5.2178,5.219,5.2149,5.2152,5.2151,5.2139,5.2133,5.2199,5.2168,5.22,5.2246,5.2261,5.2269,5.2277,5.23,5.2308,5.2204,5.2204,5.2204,0,5.2319,5.2324,5.2286,5.2296,5.2291,5.2242,5.226,5.225,5.223,5.2227,5.2205,5.2202,5.2186,5.2205,5.2221,5.2218,5.2222,5.2202,5.2271,5.2278,5.2285,5.2306,5.2315,5.2208,5.2208,5.2207,5.2207,0,5.2385,5.2389,5.2407,5.2388,5.2385,5.2399,5.2363,5.2365,5.234,5.2318,5.2331,5.231,5.2301,5.2304,5.228,5.232,5.2308,5.2279,5.2239,5.23,5.2319,5.2327,5.2214,5.2212,5.2211,5.221,0,0,5.2496,5.2456,5.2463,5.2454,5.2428,5.2431,5.2443,5.2435,5.2436,5.2425,5.2433,5.2434,5.2407,5.24,5.2374,5.2387,5.2439,5.2356,5.2355,5.2372,5.2481,5.2502,5.2512,5.2419,5.242,5.2421,5.2482,0,5.256,5.2578,5.2544,5.257,5.2573,5.2527,5.2538,5.2523,5.2503,5.2504,5.2482,5.2482,5.2447,5.2443,5.2453,5.2431,5.246,5.2426,5.2426,5.2427,5.2431,5.2522,5.2545,5.2603,5.249,5.2491,5.2492,0,5.2636,5.2628,5.2654,5.2626,5.2626,5.2636,5.2626,5.2627,5.2609,5.2594,5.2586,5.2555,5.2565,5.2528,5.254,5.2517,5.2516,5.2505,5.2506,5.2504,5.2462,5.2522,5.2621,5.263,5.2503,5.2503,5.2502,0,5.2714,5.2709,5.2724,5.2718,5.2686,5.2694,5.2681,5.2662,5.2659,5.265,5.2647,5.264,5.2636,5.263,5.2598,5.2574,5.2615,5.2574,5.2602,5.2603,5.2612,5.2611,5.2711,5.2612,5.2612,5.2612,5.2612,0,5.2788,5.2806,5.2758,5.2767,5.2786,5.2747,5.2767,5.2749,5.2732,5.2737,5.2698,5.2703,5.2661,5.2662,5.2637,5.2651,5.2649,5.2637,5.263,5.264,5.2641,5.2637,5.2632,5.2614,5.2614,5.2613,5.2613,0,5.2877,5.2846,5.2859,5.2828,5.2821,5.2836,5.2809,5.2816,5.2794,5.2801,5.28,5.2765,5.2764,5.2732,5.2724,5.2708,5.2731,5.2717,5.2737,5.2732,5.2761,5.2759,5.2861,5.2872,5.2768,5.2769,5.277,0,5.2926,5.2939,5.2909,5.2909,5.2898,5.29,5.2896,5.2859,5.2857,5.2838,5.2848,5.2843,5.2838,5.2838,5.2812,5.2806,5.2791,5.2827,5.279,5.2799,5.279,5.279,5.279,5.2835,5.2836,5.2837,5.2838,0,5.3016,5.3,5.2997,5.2988,5.2986,5.2977,5.2966,5.2969,5.2928,5.2928,5.2926,5.2922,5.2914,5.291,5.2899,5.2886,5.2855,5.2851,5.2856,5.2866,5.2877,5.2871,5.2758,5.2848,5.2847,5.2846,5.2846,5.2846,5.3086,5.3094,5.3075,5.3073,5.3061,5.3051,5.3056,5.3035,5.3033,5.3023,5.3001,5.3003,5.2985,5.2967,5.2957,5.2957,5.2939,5.2948,5.2949,5.2952,5.2957,5.2878,5.2955,5.2955,5.2955,5.2954,5.2954,0,5.3173,5.3158,5.3156,5.3142,5.314,5.3112,5.3099,5.3099,5.3101,5.3087,5.3082,5.308,5.3076,5.305,5.3043,5.3049,5.3034,5.3048,5.3047,5.3044,5.2975,5.297,5.3059,5.3059,5.3059,5.3059,5.3059,5.3059,5.3218,5.3231,5.3213,5.322,5.3204,5.3206,5.32,5.3192,5.318,5.318,5.3176,5.3159,5.314,5.3131,5.3126,5.3119,5.3118,5.3136,5.3123,5.3059,5.3049,5.3039,5.3034,5.3136,5.3136,5.3192,5.3193,5.3193]}]]